AirNav   Air Wisconsin pilot careers
 
 350 users online  

KAPT Marion County Airport-Brown Field
Jasper, Tennessee, USA

GOING TO JASPER?


FAA INFORMATION EFFECTIVE 03 JANUARY 2019

Location

FAA Identifier: APT
Lat/Long: 35-03-38.4000N / 085-35-07.1000W
35-03.640000N / 085-35.118333W
35.0606667 / -85.5853056
(estimated)
Elevation: 641.2 ft. / 195.4 m (surveyed)
Variation: 02W (1990)
From city: 4 miles SE of JASPER, TN
Time zone: UTC -6 (UTC -5 during Daylight Saving Time)
Zip code: 37347

Airport Operations

Airport use: Open to the public
Control tower: no
ARTCC: ATLANTA CENTER
FSS: NASHVILLE FLIGHT SERVICE STATION
NOTAMs facility: BNA (NOTAM-D service available)
Attendance: MON-SAT 0800-1700, ALL SUN 1300-1700
CLSD ON FED HOLS. SVCS NOT AVBL HOLS.
Wind indicator: lighted
Segmented circle: yes
Lights: SS-SR
Beacon: white-green (lighted land airport)
Operates sunset to sunrise.

Airport Communications

CTAF/UNICOM: 122.8
CHATTANOOGA APPROACH: 119.2
CHATTANOOGA DEPARTURE: 119.2
WX ASOS at CHA (19 nm E): 119.85 (423-499-5973)
  • APCH/DEP SVC PRVDD BY ATLANTA ARTCC ON FREQS 132.05/354.025 (CHATTANOOGA RCAG) WHEN CHATTANOOGA APCH CTL CLSD.

Nearby radio navigation aids

VOR radial/distance  VOR name  Freq  Var
GQOr285/22.0CHOO CHOO VORTAC115.8001E

 
NDB name  Hdg/Dist  Freq  Var  ID
DAISY255/21.934102WCQN -.-. --.- -.
FORT PAYNE012/32.742604WFTP ..-. - .--.

Airport Services

Fuel available: 100LL JET-A+
Parking: hangars and tiedowns
Airframe service: NONE
Powerplant service: NONE
Bottled oxygen: NONE
Bulk oxygen: NONE

Runway Information

Runway 4/22

Dimensions: 3498 x 75 ft. / 1066 x 23 m
Surface: asphalt, in good condition
Weight bearing capacity: 
Single wheel: 30.0
Runway edge lights: medium intensity
RUNWAY 4  RUNWAY 22
Latitude: 35-03.413527N35-03.867907N
Longitude: 085-35.334935W085-34.903055W
Elevation: 641.0 ft.640.8 ft.
Traffic pattern: leftright
Runway heading: 040 magnetic, 038 true220 magnetic, 218 true
Markings: nonprecision, in good conditionnonprecision, in good condition
Visual slope indicator: 4-light PAPI on left (3.50 degrees glide path)4-light PAPI on left (3.50 degrees glide path)
Runway end identifier lights: yesyes
Touchdown point: yes, no lightsyes, no lights
Obstructions: 79 ft. tree, 1284 ft. from runway, 327 ft. right of centerline, 13:1 slope to clear110 ft. tree, 1925 ft. from runway, 471 ft. right of centerline, 15:1 slope to clear

Airport Ownership and Management from official FAA records

Ownership: Publicly-owned
Owner: MARION COUNTY
31 COURTHOUSE SQUARE
JASPER, TN 37347
Phone 423-942-2552
Manager: BETH GUDGER
300 AIRPORT RD
JASPER, TN 37347
Phone 423-942-5234

Airport Operational Statistics

Aircraft based on the field: 26
Single engine airplanes: 18
Ultralights: 8
    
Aircraft operations: avg 23/day *
62% local general aviation
36% transient general aviation
2% military
* for 12-month period ending 31 August 2015

Additional Remarks

ULTRALIGHT ACTIVITY ON AND IN VICINITY OF ARPT.
DEER ON & INVOF ARPT.

Instrument Procedures

NOTE: All procedures below are presented as PDF files. If you need a reader for these files, you should download the free Adobe Reader.

NOT FOR NAVIGATION. Please procure official charts for flight.
FAA instrument procedures published for use from 3 January 2019 at 0901Z to 31 January 2019 at 0900Z.

 
IAPs - Instrument Approach Procedures
RNAV (GPS) RWY 04   download (249KB)
NOTE: Special Take-Off Minimums/Departure Procedures apply   download (126KB)

Other nearby airports with instrument procedures:

KCHA - Lovell Field Airport (19 nm E)
KBGF - Winchester Municipal Airport (25 nm W)
9A5 - Barwick Lafayette Airport (27 nm SE)
4A6 - Scottsboro Municipal Airport-Word Field (30 nm SW)
4A9 - Isbell Field Airport (36 nm S)
 
Loc | Ops | Rwys | IFR | FBO | Links
Com | Nav | Svcs | Stats | Notes
Area around KAPT (Marion County Airport-Brown Field)
 
Road maps at: MapQuest Bing Google
 
Aerial photo
WARNING: Photo may not be current or correct
Aerial photo of KAPT (Marion County Airport-Brown Field)
Photo by Antonio Moré
Photo taken 04-Nov-2007

Do you have a better or more recent aerial photo of Marion County Airport-Brown Field that you would like to share? If so, please send us your photo.

 
Sectional chart

 
Airport distance calculator
Flying to Marion County Airport-Brown Field? Find the distance to fly.

From to KAPT

Sunrise and sunset
Times for 20-Jan-2019
 Local
(UTC-6)
 Zulu
(UTC)
Morning civil twilight06:2212:22
Sunrise06:4912:49
Sunset16:5822:58
Evening civil twilight17:2523:25

Current date and time
Zulu (UTC)  20-Jan-2019 10:59:57
Local (UTC-6)  20-Jan-2019 04:59:57
 
METAR
KCHA 
19nm E 
201053Z 32011KT 10SM OVC025 01/M05 A2990 RMK AO2 SLP123 T00061050
KBGF 
25nm W 
201035Z AUTO 35009G24KT 10SM OVC015 M02/M05 A2994 RMK A01
K9A5 
27nm SE 
201035Z AUTO 32009KT 10SM OVC024 00/M04 A2987 RMK AO2 T10051043
K4A6 
30nm SW 
201055Z AUTO 33008G20KT 310V020 10SM OVC022 M00/M03 A2996 RMK AO2
KDNN 
31nm SE 
201035Z AUTO 32016G20KT 10SM OVC022 00/M02 A2985 RMK AO2
K4A9 
36nm S 
201035Z AUTO 31012G19KT 290V350 10SM OVC020 M01/M04 A2988 RMK AO2 T10091043
KTHA 
38nm NW 
201035Z AUTO 33016G27KT 10SM OVC014 M03/M05 A2994 RMK A01
TAF
KCHA 
19nm E 
200526Z 2006/2106 28015G25KT P6SM VCSH BKN030 FM200900 31015G25KT P6SM -SHSN OVC025 FM201200 33015G25KT P6SM BKN030 FM201500 33015G25KT P6SM SCT100
NOTAMs
Click for the latest NOTAMs
NOTAMs are issued by the DoD/FAA and will open in a separate window not controlled by AirNav.

 

 
 

FBO, Fuel Providers, and Aircraft Ground Support

  
 Business Name 
 
 Contact 
 
 Services / Description 
 
Fuel Prices
 
Comments
  
Marion County Airport 423-942-5234
no information available

If you are affiliated with Marion County Airport and would like to show here your services, contact info, web link, logo, and more, click here
100LL Jet A Mogas
SS $4.49 $3.99 $3.50 
 Updated 17-Jan-2019
 
   write
SS=Self service
Update Fuel Prices
 

Would you like to see your business listed on this page?

 If your business provides an interesting product or service to pilots, flight crews, aircraft, or users of the Marion County Airport-Brown Field, you should consider listing it here.  To start the listing process, click on the button below
 
Add a business
 

Other Pages about Marion County Airport-Brown Field

Update a link
 
Copyright © AirNav, LLC. All rights reserved. Privacy Policy  Contact